• In Netherlands
  • List of Countries
  • For 7 days
  • Water Temperature
  • Satellite Maps
  • Weather Map
  • Weather Widgets
  • user-avatar
    Login

    Hourly Weather Batina

    Today, 28 March, Tuesday

    Time Temperature Precipitation Wind Pressure Humidity
    00:00 +8°C° 0 mm 2 mps 672 mmHg 83%
    01:00 +8°C° 0 mm 2 mps 672 mmHg 84%
    02:00 +7°C° 0 mm 2 mps 672 mmHg 84%
    03:00 +7°C° 0 mm 2 mps 672 mmHg 85%
    04:00 +7°C° 0 mm 2 mps 672 mmHg 85%
    05:00 +8°C° 0 mm 1 mps 673 mmHg 85%
    06:00 +8°C° 0 mm 1 mps 673 mmHg 85%
    07:00 +10°C° 0 mm 1 mps 673 mmHg 73%
    08:00 +12°C° 0 mm 1 mps 674 mmHg 62%
    09:00 +14°C° 0 mm 1 mps 675 mmHg 50%
    10:00 +15°C° 0 mm 2 mps 675 mmHg 44%
    11:00 +16°C° 0 mm 2 mps 675 mmHg 37%
    12:00 +17°C° 0 mm 3 mps 675 mmHg 31%
    13:00 +17°C° 0 mm 4 mps 675 mmHg 30%
    14:00 +18°C° 0 mm 4 mps 675 mmHg 30%
    15:00 +17°C° 0 mm 5 mps 675 mmHg 29%
    16:00 +15°C° 0 mm 4 mps 674 mmHg 37%
    17:00 +13°C° 0 mm 4 mps 674 mmHg 45%
    18:00 +11°C° 0 mm 4 mps 674 mmHg 53%
    19:00 +9°C° 0 mm 3 mps 674 mmHg 59%
    20:00 +8°C° 0 mm 3 mps 674 mmHg 66%
    21:00 +7°C° 0 mm 2 mps 674 mmHg 73%
    22:00 +6°C° 0 mm 2 mps 674 mmHg 75%
    23:00 +6°C° 0 mm 2 mps 674 mmHg 77%

    Tomorrow, 29 March, Wednesday

    Time Temperature Precipitation Wind Pressure Humidity
    00:00 +5°C° 0 mm 2 mps 674 mmHg 79%
    01:00 +5°C° 0 mm 2 mps 674 mmHg 79%
    02:00 +4°C° 0 mm 2 mps 674 mmHg 79%
    03:00 +4°C° 0 mm 2 mps 673 mmHg 79%
    04:00 +4°C° 0 mm 2 mps 674 mmHg 79%
    05:00 +4°C° 0 mm 2 mps 674 mmHg 78%
    06:00 +4°C° 0 mm 2 mps 674 mmHg 78%
    07:00 +6°C° 0 mm 2 mps 675 mmHg 67%
    08:00 +8°C° 0 mm 3 mps 676 mmHg 56%
    09:00 +9°C° 0 mm 3 mps 676 mmHg 45%
    10:00 +11°C° 0 mm 3 mps 676 mmHg 40%
    11:00 +12°C° 0 mm 3 mps 676 mmHg 34%
    12:00 +14°C° 0 mm 4 mps 676 mmHg 29%
    13:00 +14°C° 0 mm 4 mps 676 mmHg 29%
    14:00 +14°C° 0 mm 4 mps 676 mmHg 28%
    15:00 +14°C° 0 mm 4 mps 675 mmHg 28%
    16:00 +13°C° 0 mm 4 mps 675 mmHg 34%
    17:00 +11°C° 0 mm 3 mps 675 mmHg 40%
    18:00 +9°C° 0 mm 3 mps 675 mmHg 46%
    19:00 +8°C° 0 mm 3 mps 675 mmHg 55%
    20:00 +6°C° 0 mm 2 mps 675 mmHg 64%
    21:00 +5°C° 0 mm 2 mps 675 mmHg 73%
    22:00 +4°C° 0 mm 2 mps 675 mmHg 75%
    23:00 +4°C° 0 mm 2 mps 675 mmHg 78%

    Day after tomorrow, 30 March, Thursday

    Time Temperature Precipitation Wind Pressure Humidity
    00:00 +4°C° 0 mm 1 mps 675 mmHg 80%
    01:00 +4°C° 0 mm 1 mps 675 mmHg 78%
    02:00 +3°C° 0 mm 1 mps 674 mmHg 76%
    03:00 +3°C° 0 mm 1 mps 674 mmHg 74%
    04:00 +3°C° 0 mm 1 mps 674 mmHg 71%
    05:00 +4°C° 0 mm 1 mps 675 mmHg 67%
    06:00 +4°C° 0 mm 1 mps 675 mmHg 64%
    07:00 +7°C° 0 mm 1 mps 676 mmHg 52%
    08:00 +10°C° 0 mm 1 mps 677 mmHg 39%
    09:00 +13°C° 0 mm 1 mps 678 mmHg 26%
    10:00 +15°C° 0 mm 1 mps 678 mmHg 24%
    11:00 +16°C° 0 mm 2 mps 678 mmHg 21%
    12:00 +18°C° 0 mm 2 mps 678 mmHg 19%
    13:00 +18°C° 0 mm 2 mps 678 mmHg 19%
    14:00 +18°C° 0 mm 2 mps 677 mmHg 19%
    15:00 +19°C° 0 mm 2 mps 677 mmHg 19%
    16:00 +16°C° 0 mm 2 mps 676 mmHg 25%
    17:00 +14°C° 0 mm 2 mps 675 mmHg 32%
    18:00 +10°C° 0 mm 2 mps 675 mmHg 38%
    19:00 +9°C° 0 mm 2 mps 675 mmHg 45%
    20:00 +8°C° 0 mm 2 mps 675 mmHg 53%
    21:00 +8°C° 0 mm 1 mps 675 mmHg 60%
    22:00 +7°C° 0 mm 2 mps 675 mmHg 60%
    23:00 +7°C° 0 mm 2 mps 675 mmHg 60%

    31 March, Friday

    Time Temperature Precipitation Wind Pressure Humidity
    00:00 +7°C° 0 mm 2 mps 675 mmHg 61%
    01:00 +7°C° 0 mm 2 mps 674 mmHg 60%
    02:00 +6°C° 0 mm 2 mps 674 mmHg 60%
    03:00 +6°C° 0 mm 2 mps 674 mmHg 59%
    04:00 +7°C° 0 mm 2 mps 674 mmHg 58%
    05:00 +7°C° 0 mm 2 mps 674 mmHg 57%
    06:00 +7°C° 0 mm 2 mps 674 mmHg 56%
    07:00 +10°C° 0 mm 3 mps 675 mmHg 47%
    08:00 +13°C° 0 mm 4 mps 676 mmHg 38%
    09:00 +16°C° 0 mm 5 mps 676 mmHg 29%
    10:00 +17°C° 0 mm 5 mps 676 mmHg 27%
    11:00 +19°C° 0 mm 5 mps 676 mmHg 24%
    12:00 +20°C° 0 mm 5 mps 676 mmHg 22%
    13:00 +20°C° 0 mm 5 mps 675 mmHg 22%
    14:00 +20°C° 0 mm 5 mps 675 mmHg 22%
    15:00 +20°C° 0 mm 5 mps 674 mmHg 22%
    16:00 +18°C° 0 mm 4 mps 674 mmHg 26%
    17:00 +16°C° 0 mm 3 mps 673 mmHg 31%
    18:00 +13°C° 0 mm 3 mps 673 mmHg 35%
    19:00 +13°C° 0 mm 2 mps 673 mmHg 37%
    20:00 +13°C° 0 mm 2 mps 673 mmHg 40%
    21:00 +12°C° 0 mm 2 mps 673 mmHg 42%
    22:00 +12°C° 0 mm 2 mps 673 mmHg 41%
    23:00 +12°C° 0 mm 2 mps 673 mmHg 40%

    1 April, Saturday

    Time Temperature Precipitation Wind Pressure Humidity
    00:00 +12°C° 0 mm 2 mps 673 mmHg 39%
    01:00 +12°C° 0.1 mm 2 mps 672 mmHg 42%
    02:00 +12°C° 0.1 mm 2 mps 672 mmHg 44%
    03:00 +10°C° 0.1 mm 2 mps 672 mmHg 47%
    04:00 +10°C° 0.2 mm 2 mps 672 mmHg 50%
    05:00 +10°C° 0.2 mm 2 mps 671 mmHg 53%
    06:00 +9°C° 0.2 mm 2 mps 671 mmHg 56%
    07:00 +12°C° 0 mm 2 mps 672 mmHg 52%
    08:00 +14°C° 0 mm 2 mps 673 mmHg 47%
    09:00 +16°C° 0 mm 2 mps 673 mmHg 43%
    10:00 +17°C° 0.1 mm 3 mps 673 mmHg 38%
    11:00 +19°C° 0.1 mm 4 mps 673 mmHg 34%
    12:00 +20°C° 0.1 mm 4 mps 673 mmHg 30%
    13:00 +20°C° 0 mm 4 mps 672 mmHg 30%
    14:00 +19°C° 0 mm 5 mps 671 mmHg 30%
    15:00 +19°C° 0 mm 5 mps 671 mmHg 30%
    16:00 +17°C° 0.3 mm 4 mps 670 mmHg 38%
    17:00 +16°C° 0.3 mm 3 mps 670 mmHg 46%
    18:00 +14°C° 0.3 mm 2 mps 670 mmHg 54%
    19:00 +13°C° 0.6 mm 2 mps 670 mmHg 60%
    20:00 +12°C° 0.6 mm 2 mps 670 mmHg 66%
    21:00 +10°C° 0.6 mm 2 mps 670 mmHg 72%
    22:00 +10°C° 1.3 mm 2 mps 670 mmHg 76%
    23:00 +9°C° 1.3 mm 2 mps 669 mmHg 79%

    2 April, Sunday

    Time Temperature Precipitation Wind Pressure Humidity
    00:00 +8°C° 1.3 mm 2 mps 669 mmHg 82%
    01:00 +8°C° 0.1 mm 2 mps 669 mmHg 83%
    02:00 +7°C° 0.1 mm 2 mps 668 mmHg 83%
    03:00 +6°C° 0.1 mm 2 mps 668 mmHg 84%
    04:00 +6°C° 0 mm 2 mps 668 mmHg 82%
    05:00 +6°C° 0 mm 2 mps 668 mmHg 81%
    06:00 +6°C° 0 mm 2 mps 668 mmHg 79%
    07:00 +7°C° 0 mm 3 mps 669 mmHg 71%
    08:00 +7°C° 0 mm 4 mps 669 mmHg 64%
    09:00 +9°C° 0 mm 5 mps 670 mmHg 56%
    10:00 +9°C° 0.1 mm 5 mps 670 mmHg 54%
    11:00 +10°C° 0.1 mm 6 mps 670 mmHg 51%
    12:00 +11°C° 0.1 mm 6 mps 670 mmHg 48%
    13:00 +11°C° 0.2 mm 6 mps 670 mmHg 49%
    14:00 +11°C° 0.2 mm 7 mps 669 mmHg 49%
    15:00 +11°C° 0.2 mm 7 mps 669 mmHg 50%
    16:00 +9°C° 0 mm 6 mps 669 mmHg 54%
    17:00 +8°C° 0 mm 5 mps 669 mmHg 59%
    18:00 +7°C° 0 mm 4 mps 669 mmHg 63%
    19:00 +7°C° 0 mm 3 mps 669 mmHg 67%
    20:00 +6°C° 0 mm 2 mps 669 mmHg 71%
    21:00 +5°C° 0 mm 2 mps 670 mmHg 75%
    22:00 +5°C° 0 mm 2 mps 669 mmHg 77%
    23:00 +4°C° 0 mm 2 mps 669 mmHg 78%
    Show more